Grizzly Air Cargo 5285


CYEG
Edmonton International Airport
Edmonton, CA
KDEN
Denver International Airport
Denver, US

Activity Log

Date Flight Route Aircraft Duration
No Flights Yet

Route Details

Aircraft Information
Primary: Boeing 737-800BCF
Backup: Boeing 727-200F
Route Data
Distance: 887nm
Sched. Duration: 2h 45m
Avg. Duration: 0h 00m (-245m)
Times Flown: 0
Recm'd Route: OMROD TOVIS YEA BIL OPPEE MOLTN3
Planned Altitude: 35,000ft
Origin Wx: CYEG 260700Z 29004KT 20SM BKN110 BKN130 M02/M09 A3004 RMK AC5AC2 SLP213
Dest. Wx: KDEN 260703Z 07007KT 2SM -SN BR OVC032 M13/M15 A3025 RMK AO2 SFC VIS 2 1/2 P0000 T11331150 $
Notes:

Financial History
Total Freight: 0lbs
Average Load: 0lbs/flt
Fuel Used: 0lbs
Avg. Fuel Used: 0lbs/flt
Fuel Expense: $0
Avg. Fuel Expense: $0
Avg. Fuel Cost: $0/lbs
Total Gross Income: $0
Pilot Pay: $0
Total Expenses: $0
Total Revenue: $0
Average Revenue: $0